LROP Weather Reports


time (UTC)temp
C
wind
direction
speed
KPH
gust
KPH
rain 1hr
cm
rain 24hr
cm
rain mn
cm
humidity
%
barometer
mb
20230208160551 -2 60 16.1 0.0 0.00 0.00 0.00 64 1042.0
20230208153552 -1 70 16.1 0.0 0.00 0.00 0.00 59 1042.0
20230208150553 0 60 20.9 0.0 0.00 0.00 0.00 55 1041.0
20230208143551 0 60 27.4 0.0 0.00 0.00 0.00 55 1041.0
20230208140552 0 60 20.9 0.0 0.00 0.00 0.00 55 1041.0
20230208133552 1 60 17.7 0.0 0.00 0.00 0.00 56 1041.0
20230208130552 1 30 16.1 0.0 0.00 0.00 0.00 60 1041.0
20230208123552 0 40 8.0 0.0 0.00 0.00 0.00 64 1041.0
20230208120552 -1 360 4.8 0.0 0.00 0.00 0.00 75 1041.0
20230208113552 -1 360 4.8 0.0 0.00 0.00 0.00 80 1041.0
20230208110555 -2 10 9.7 0.0 0.00 0.00 0.00 86 1041.0
20230208103553 -2 350 11.3 0.0 0.00 0.00 0.00 86 1041.0
20230208100552 -2 360 11.3 0.0 0.00 0.00 0.00 80 1041.0
20230208093552 -2 280 9.7 0.0 0.00 0.00 0.00 80 1041.0
20230208090552 -2 280 9.7 0.0 0.00 0.00 0.00 74 1041.0
20230208083552 -2 290 8.0 0.0 0.00 0.00 0.00 69 1041.0
20230208080555 -2 350 8.0 0.0 0.00 0.00 0.00 74 1041.0
20230208073552 -2 20 9.7 0.0 0.00 0.00 0.00 69 1040.0
20230208070554 -2 30 11.3 0.0 0.00 0.00 0.00 59 1040.0
20230208063552 -2 30 9.7 0.0 0.00 0.00 0.00 64 1040.0
20230208060552 -2 40 12.9 0.0 0.00 0.00 0.00 59 1040.0
20230208053551 -3 60 22.5 0.0 0.00 0.00 0.00 69 1039.0
20230208050552 -3 60 20.9 0.0 0.00 0.00 0.00 69 1039.0
20230208043553 -3 60 22.5 0.0 0.00 0.00 0.00 74 1038.0
20230208040551 -2 70 24.1 0.0 0.00 0.00 0.00 69 1038.0
20230208033553 -2 60 22.5 0.0 0.00 0.00 0.00 69 1038.0
20230208030552 -2 70 20.9 0.0 0.00 0.00 0.00 74 1038.0
20230208023552 -2 70 17.7 0.0 0.00 0.00 0.00 80 1038.0
20230208020552 -2 60 22.5 0.0 0.00 0.00 0.00 86 1037.0
20230208013552 -2 60 22.5 0.0 0.00 0.00 0.00 86 1037.0
20230208010552 -2 60 24.1 0.0 0.00 0.00 0.00 80 1037.0
20230208003552 -2 70 14.5 0.0 0.00 0.00 0.00 93 1036.0
20230208000551 -2 80 9.7 0.0 0.00 0.00 0.00 86 1036.0
20230207233553 -1 70 4.8 0.0 0.00 0.00 0.00 69 1036.0
20230207230554 -2 1.6 0.0 0.00 0.00 0.00 80 1035.0
20230207223552 -2 180 3.2 0.0 0.00 0.00 0.00 86 1035.0
20230207220552 -2 1.6 0.0 0.00 0.00 0.00 86 1035.0
20230207213552 -1 20 9.7 0.0 0.00 0.00 0.00 75 1035.0
20230207210552 -1 50 11.3 0.0 0.00 0.00 0.00 69 1035.0
20230207203551 -1 60 4.8 0.0 0.00 0.00 0.00 75 1034.0
20230207200552 -2 210 1.6 0.0 0.00 0.00 0.00 80 1034.0
20230207193552 -2 3.2 0.0 0.00 0.00 0.00 69 1034.0
20230207190552 -2 3.2 0.0 0.00 0.00 0.00 69 1034.0
20230207183552 -1 1.6 0.0 0.00 0.00 0.00 59 1034.0
20230207180551 -1 360 8.0 0.0 0.00 0.00 0.00 64 1033.0
20230207173552 -1 300 8.0 0.0 0.00 0.00 0.00 59 1034.0
20230207170554 -2 300 8.0 0.0 0.00 0.00 0.00 74 1033.0
20230207163552 -2 330 4.8 0.0 0.00 0.00 0.00 74 1033.0